• In Österreich
  • Länderverzeichnis
  • Für 7 Tage
  • Wassertemperatur
  • Satellitenkarten
  • Wetterkarte
  • News
  • Widgets
  • user-avatar
    Anmelden

    Stündliche Wetter Hillerød

    Heute, 20 September, Donnerstag

    Zeit Temperatur Niederschläge Wind Luftdruck Luftfeuchtigkeit
    00:00 +17°C° 0 mm 7 m/S 754 mmHg 80%
    01:00 +17°C° 0 mm 7 m/S 754 mmHg 79%
    02:00 +17°C° 0 mm 7 m/S 754 mmHg 80%
    03:00 +17°C° 0 mm 7 m/S 754 mmHg 81%
    04:00 +17°C° 0 mm 7 m/S 754 mmHg 82%
    05:00 +17°C° 0 mm 7 m/S 755 mmHg 83%
    06:00 +17°C° 0 mm 7 m/S 755 mmHg 84%
    07:00 +17°C° 0 mm 6 m/S 755 mmHg 85%
    08:00 +17°C° 0.1 mm 6 m/S 755 mmHg 82%
    09:00 +18°C° 0.1 mm 7 m/S 755 mmHg 79%
    10:00 +20°C° 0.1 mm 7 m/S 755 mmHg 76%
    11:00 +20°C° 0.1 mm 7 m/S 755 mmHg 74%
    12:00 +20°C° 0.1 mm 7 m/S 755 mmHg 72%
    13:00 +20°C° 0.1 mm 7 m/S 755 mmHg 70%
    14:00 +20°C° 0.2 mm 7 m/S 755 mmHg 70%
    15:00 +20°C° 0.2 mm 6 m/S 755 mmHg 70%
    16:00 +20°C° 0.2 mm 6 m/S 754 mmHg 70%
    17:00 +19°C° 0.2 mm 5 m/S 754 mmHg 75%
    18:00 +19°C° 0.2 mm 4 m/S 754 mmHg 80%
    19:00 +18°C° 0.2 mm 2 m/S 754 mmHg 84%
    20:00 +18°C° 0 mm 3 m/S 754 mmHg 86%
    21:00 +17°C° 0 mm 4 m/S 753 mmHg 87%
    22:00 +16°C° 0 mm 5 m/S 753 mmHg 88%
    23:00 +16°C° 0 mm 5 m/S 752 mmHg 85%

    Morgen, 21 September, Freitag

    Zeit Temperatur Niederschläge Wind Luftdruck Luftfeuchtigkeit
    00:00 +17°C° 0 mm 6 m/S 751 mmHg 83%
    01:00 +17°C° 0 mm 7 m/S 751 mmHg 80%
    02:00 +17°C° 0 mm 7 m/S 750 mmHg 79%
    03:00 +17°C° 0 mm 7 m/S 749 mmHg 77%
    04:00 +18°C° 0 mm 8 m/S 749 mmHg 76%
    05:00 +18°C° 0 mm 8 m/S 748 mmHg 75%
    06:00 +18°C° 0 mm 8 m/S 747 mmHg 74%
    07:00 +18°C° 0 mm 9 m/S 746 mmHg 74%
    08:00 +18°C° 0 mm 10 m/S 745 mmHg 70%
    09:00 +19°C° 0 mm 10 m/S 745 mmHg 67%
    10:00 +21°C° 0 mm 11 m/S 744 mmHg 63%
    11:00 +21°C° 0.5 mm 12 m/S 744 mmHg 65%
    12:00 +21°C° 0.5 mm 12 m/S 743 mmHg 66%
    13:00 +20°C° 0.5 mm 13 m/S 743 mmHg 67%
    14:00 +18°C° 0.9 mm 13 m/S 743 mmHg 67%
    15:00 +15°C° 0.9 mm 13 m/S 743 mmHg 66%
    16:00 +14°C° 0.9 mm 13 m/S 744 mmHg 65%
    17:00 +13°C° 0 mm 13 m/S 744 mmHg 64%
    18:00 +12°C° 0 mm 13 m/S 744 mmHg 63%
    19:00 +12°C° 0 mm 14 m/S 745 mmHg 61%
    20:00 +12°C° 0.2 mm 13 m/S 745 mmHg 63%
    21:00 +10°C° 0.2 mm 13 m/S 745 mmHg 65%
    22:00 +10°C° 0.2 mm 12 m/S 746 mmHg 67%
    23:00 +10°C° 0.3 mm 12 m/S 746 mmHg 68%

    übermorgen, 22 September, Samstag

    Zeit Temperatur Niederschläge Wind Luftdruck Luftfeuchtigkeit
    00:00 +11°C° 0.3 mm 11 m/S 747 mmHg 68%
    01:00 +11°C° 0.3 mm 11 m/S 747 mmHg 69%
    02:00 +11°C° 0.1 mm 11 m/S 748 mmHg 68%
    03:00 +11°C° 0.1 mm 11 m/S 749 mmHg 67%
    04:00 +9°C° 0.1 mm 11 m/S 749 mmHg 66%
    05:00 +9°C° 0 mm 11 m/S 750 mmHg 65%
    06:00 +9°C° 0 mm 10 m/S 750 mmHg 65%
    07:00 +11°C° 0 mm 10 m/S 751 mmHg 65%
    08:00 +11°C° 0.1 mm 10 m/S 751 mmHg 62%
    09:00 +12°C° 0.1 mm 10 m/S 751 mmHg 60%
    10:00 +13°C° 0.1 mm 10 m/S 752 mmHg 57%
    11:00 +13°C° 0.4 mm 11 m/S 752 mmHg 57%
    12:00 +13°C° 0.4 mm 11 m/S 751 mmHg 57%
    13:00 +13°C° 0.4 mm 11 m/S 751 mmHg 58%
    14:00 +13°C° 0.4 mm 12 m/S 751 mmHg 60%
    15:00 +13°C° 0.4 mm 13 m/S 751 mmHg 62%
    16:00 +12°C° 0.4 mm 13 m/S 751 mmHg 64%
    17:00 +12°C° 0.3 mm 13 m/S 751 mmHg 66%
    18:00 +10°C° 0.3 mm 12 m/S 752 mmHg 68%
    19:00 +11°C° 0.3 mm 11 m/S 752 mmHg 70%
    20:00 +11°C° 0.1 mm 11 m/S 753 mmHg 70%
    21:00 +11°C° 0.1 mm 10 m/S 753 mmHg 70%
    22:00 +9°C° 0.1 mm 10 m/S 753 mmHg 69%
    23:00 +10°C° 0.1 mm 9 m/S 754 mmHg 70%

    23 September, Sonntag

    Zeit Temperatur Niederschläge Wind Luftdruck Luftfeuchtigkeit
    00:00 +10°C° 0.1 mm 9 m/S 754 mmHg 70%
    01:00 +10°C° 0.1 mm 9 m/S 754 mmHg 70%
    02:00 +10°C° 0.1 mm 8 m/S 754 mmHg 70%
    03:00 +10°C° 0.1 mm 8 m/S 753 mmHg 70%
    04:00 +9°C° 0.1 mm 8 m/S 753 mmHg 70%
    05:00 +9°C° 0 mm 7 m/S 753 mmHg 69%
    06:00 +10°C° 0 mm 7 m/S 753 mmHg 69%
    07:00 +10°C° 0 mm 6 m/S 753 mmHg 68%
    08:00 +10°C° 0 mm 6 m/S 753 mmHg 64%
    09:00 +11°C° 0 mm 6 m/S 753 mmHg 60%
    10:00 +13°C° 0 mm 6 m/S 752 mmHg 56%
    11:00 +13°C° 0 mm 5 m/S 752 mmHg 56%
    12:00 +13°C° 0 mm 4 m/S 752 mmHg 55%
    13:00 +13°C° 0 mm 4 m/S 751 mmHg 54%
    14:00 +13°C° 0.1 mm 3 m/S 751 mmHg 57%
    15:00 +12°C° 0.1 mm 3 m/S 750 mmHg 59%
    16:00 +12°C° 0.1 mm 3 m/S 750 mmHg 62%
    17:00 +12°C° 0.1 mm 3 m/S 750 mmHg 63%
    18:00 +11°C° 0.1 mm 4 m/S 749 mmHg 64%
    19:00 +11°C° 0.1 mm 4 m/S 749 mmHg 64%
    20:00 +11°C° 0.1 mm 4 m/S 749 mmHg 66%
    21:00 +9°C° 0.1 mm 5 m/S 749 mmHg 67%
    22:00 +9°C° 0.1 mm 5 m/S 748 mmHg 68%
    23:00 +9°C° 0.1 mm 5 m/S 749 mmHg 67%

    24 September, Montag

    Zeit Temperatur Niederschläge Wind Luftdruck Luftfeuchtigkeit
    00:00 +9°C° 0.1 mm 5 m/S 749 mmHg 67%
    01:00 +9°C° 0.1 mm 5 m/S 749 mmHg 67%
    02:00 +9°C° 0.1 mm 6 m/S 750 mmHg 67%
    03:00 +8°C° 0.1 mm 6 m/S 751 mmHg 68%
    04:00 +8°C° 0.1 mm 7 m/S 752 mmHg 68%
    05:00 +8°C° 0.2 mm 7 m/S 753 mmHg 69%
    06:00 +7°C° 0.2 mm 8 m/S 754 mmHg 70%
    07:00 +6°C° 0.2 mm 8 m/S 755 mmHg 70%
    08:00 +7°C° 0 mm 8 m/S 756 mmHg 62%
    09:00 +9°C° 0 mm 7 m/S 758 mmHg 53%
    10:00 +10°C° 0 mm 7 m/S 759 mmHg 45%
    11:00 +11°C° 0.1 mm 7 m/S 760 mmHg 45%
    12:00 +11°C° 0.1 mm 7 m/S 760 mmHg 45%
    13:00 +11°C° 0.1 mm 7 m/S 761 mmHg 46%
    14:00 +11°C° 0.1 mm 8 m/S 761 mmHg 48%
    15:00 +11°C° 0.1 mm 8 m/S 762 mmHg 51%
    16:00 +11°C° 0.1 mm 8 m/S 762 mmHg 54%
    17:00 +10°C° 0.1 mm 8 m/S 763 mmHg 57%
    18:00 +9°C° 0.1 mm 8 m/S 763 mmHg 59%
    19:00 +9°C° 0.1 mm 8 m/S 763 mmHg 61%
    20:00 +9°C° 0.2 mm 8 m/S 763 mmHg 64%
    21:00 +7°C° 0.2 mm 8 m/S 764 mmHg 68%
    22:00 +7°C° 0.2 mm 8 m/S 764 mmHg 71%
    23:00 +8°C° 0.2 mm 9 m/S 764 mmHg 70%

    25 September, Dienstag

    Zeit Temperatur Niederschläge Wind Luftdruck Luftfeuchtigkeit
    00:00 +8°C° 0.2 mm 9 m/S 764 mmHg 70%
    01:00 +8°C° 0.2 mm 9 m/S 764 mmHg 69%
    02:00 +8°C° 0 mm 9 m/S 764 mmHg 70%
    03:00 +8°C° 0 mm 10 m/S 764 mmHg 71%
    04:00 +8°C° 0 mm 10 m/S 764 mmHg 72%
    05:00 +8°C° 0.5 mm 11 m/S 764 mmHg 74%
    06:00 +9°C° 0.5 mm 12 m/S 764 mmHg 76%
    07:00 +9°C° 0.5 mm 13 m/S 764 mmHg 78%
    08:00 +10°C° 0.4 mm 13 m/S 764 mmHg 73%
    09:00 +12°C° 0.4 mm 13 m/S 764 mmHg 68%
    10:00 +12°C° 0.4 mm 13 m/S 764 mmHg 64%
    11:00 +13°C° 0 mm 13 m/S 764 mmHg 61%
    12:00 +13°C° 0 mm 12 m/S 764 mmHg 58%
    13:00 +13°C° 0 mm 12 m/S 765 mmHg 55%
    14:00 +13°C° 0.3 mm 12 m/S 765 mmHg 59%
    15:00 +13°C° 0.3 mm 12 m/S 765 mmHg 64%
    16:00 +13°C° 0.3 mm 11 m/S 765 mmHg 69%
    17:00 +12°C° 0.1 mm 11 m/S 765 mmHg 71%
    18:00 +12°C° 0.1 mm 10 m/S 765 mmHg 73%
    19:00 +12°C° 0.1 mm 10 m/S 766 mmHg 75%
    20:00 +11°C° 0 mm 9 m/S 766 mmHg 76%
    21:00 +11°C° 0 mm 8 m/S 766 mmHg 76%
    22:00 +11°C° 0 mm 8 m/S 766 mmHg 77%
    23:00 +11°C° 0 mm 7 m/S 767 mmHg 78%
    Mehr zeigen